FW5819 Weather Reports


Display with metric or nautical units.
time (UTC)temp
F
wind
direction
speed
MPH
gust
MPH
rain 1hr
in
rain 24hr
in
rain mn
in
humidity
%
barometer
mb
20260905031551 70 0 0.0 0.0 0.00 0.30 0.30 94 1015.1
20260905030044 70 0 0.0 0.0 0.00 0.30 0.30 94 1015.1
20260905024540 70 0 0.0 0.0 0.00 0.30 0.30 94 1015.2
20260905023042 70 0 0.0 0.0 0.00 0.30 0.30 93 1015.3
20260905021539 71 0 0.0 0.0 0.00 0.30 0.30 93 1015.2
20260905020049 71 0 0.0 0.0 0.00 0.30 0.30 93 1015.1
20260905014543 71 0 0.0 0.0 0.00 0.30 0.30 93 1015.1
20260905013047 72 0 0.0 0.0 0.00 0.30 0.30 93 1015.2
20260905011619 72 0 0.0 0.0 0.00 0.30 0.30 93 1015.2
20260905010043 72 0 0.0 0.0 0.00 0.30 0.30 92 1015.2
20260905004540 72 0 0.0 0.0 0.00 0.30 0.30 92 1015.2
20260905003042 73 0 0.0 0.0 0.00 0.30 0.30 91 1015.1
20260905001555 73 0 0.0 0.0 0.00 0.30 0.30 91 1015.0
20260905000043 75 0 0.0 0.0 0.00 0.30 0.30 90 1015.0
20260904234539 76 0 0.0 0.0 0.00 0.34 0.30 90 1015.2
20260904233042 76 0 0.0 0.0 0.00 0.34 0.30 89 1015.1
20260904231546 77 0 0.0 0.0 0.00 0.34 0.30 90 1015.2
20260904230043 77 0 0.0 0.0 0.00 0.34 0.30 89 1015.3
20260904224546 77 0 0.0 0.0 0.00 0.50 0.30 89 1014.9
20260904223046 77 0 0.0 0.0 0.00 0.50 0.30 89 1014.4
20260904221541 77 0 0.0 0.0 0.00 0.50 0.30 89 1015.0
20260904220043 77 0 0.0 0.0 0.00 0.50 0.30 88 1014.9
20260904214542 77 0 0.0 1.0 0.00 0.52 0.30 88 1014.6
20260904213043 77 0 0.0 2.0 0.00 0.52 0.30 88 1014.3
20260904211542 77 0 0.0 0.0 0.00 0.52 0.30 88 1014.1
20260904210048 77 0 0.0 0.0 0.00 0.52 0.30 88 1013.9
20260904204542 77 0 0.0 3.0 0.00 0.52 0.30 87 1013.6
20260904203044 78 48 0.0 3.0 0.00 0.52 0.30 87 1013.2
20260904201540 78 145 0.0 2.0 0.00 0.52 0.30 87 1013.0
20260904200040 78 0 0.0 2.0 0.00 0.52 0.30 88 1013.5
20260904194604 77 0 0.0 3.0 0.00 0.52 0.30 89 1014.4
20260904193040 76 207 1.0 3.0 0.00 0.52 0.30 89 1014.9
20260904191543 75 192 2.0 6.0 0.00 0.52 0.30 91 1015.3
20260904190038 75 230 2.0 4.0 0.00 0.52 0.30 93 1015.2
20260904184544 74 176 1.0 4.0 0.01 0.52 0.30 95 1015.5
20260904183057 73 191 0.0 1.0 0.02 0.52 0.30 96 1015.2
20260904181558 71 341 0.0 1.0 0.04 0.52 0.30 95 1015.0
20260904180045 71 149 1.0 7.0 0.04 0.52 0.30 94 1014.9
20260904174542 72 208 2.0 6.0 0.03 0.52 0.29 94 1016.5
20260904173040 72 250 1.0 6.0 0.02 0.51 0.28 94 1017.7
20260904171542 73 293 2.0 8.0 0.01 0.49 0.26 95 1018.3
20260904170044 73 285 2.0 5.0 0.02 0.49 0.26 95 1018.0
20260904164546 73 274 1.0 5.0 0.05 0.49 0.26 96 1017.5
20260904163046 73 12 1.0 4.0 0.06 0.49 0.26 96 1017.5
20260904161544 72 317 5.0 8.0 0.06 0.47 0.24 96 1018.0
20260904160044 72 296 3.0 11.0 0.07 0.47 0.24 96 1018.0
20260904154546 72 304 4.0 9.0 0.04 0.44 0.21 96 1018.2
20260904153046 71 329 1.0 5.0 0.03 0.43 0.20 96 1018.6
20260904151543 71 344 0.0 5.0 0.00 0.40 0.17 96 1017.8
20260904150043 71 355 2.0 3.0 0.00 0.40 0.17 96 1017.5
20260904144537 71 200 0.0 2.0 0.01 0.40 0.17 96 1016.3
20260904143050 70 236 0.0 2.0 0.04 0.40 0.17 96 1016.3
20260904141542 70 0 1.0 3.0 0.07 0.40 0.17 96 1016.2
20260904140046 69 0 0.0 1.0 0.10 0.40 0.17 96 1016.8
20260904134546 69 0 0.0 2.0 0.12 0.39 0.16 96 1016.2
20260904133044 69 0 0.0 5.0 0.13 0.36 0.13 96 1016.3
20260904131543 69 188 1.0 4.0 0.10 0.33 0.10 96 1017.3
20260904130039 69 0 0.0 4.0 0.07 0.30 0.07 96 1016.6
20260904124538 68 190 0.0 2.0 0.04 0.27 0.04 96 1017.0
20260904123043 68 234 0.0 1.0 0.00 0.23 0.00 96 1017.5
20260904121542 68 200 0.0 0.0 0.00 0.23 0.00 96 1017.1
20260904120051 68 0 0.0 2.0 0.00 0.23 0.00 96 1016.5
20260904114543 68 157 0.0 1.0 0.00 0.23 0.00 96 1016.4
20260904113044 68 191 0.0 2.0 0.00 0.23 0.00 96 1016.6
20260904111542 68 0 0.0 1.0 0.00 0.23 0.00 96 1016.2
20260904110046 67 0 0.0 1.0 0.00 0.23 0.00 96 1016.0
20260904104551 67 0 0.0 0.0 0.00 0.23 0.00 96 1015.7
20260904103042 67 0 0.0 0.0 0.00 0.23 0.00 96 1015.6
20260904101540 67 175 0.0 0.0 0.00 0.23 0.00 96 1015.6
20260904100040 67 141 0.0 2.0 0.00 0.23 0.00 96 1015.4
20260904094543 67 0 0.0 0.0 0.00 0.23 0.00 95 1015.5
20260904093045 67 0 0.0 0.0 0.00 0.23 0.00 96 1015.9
20260904092027 67 0 0.0 0.0 0.00 0.23 0.00 96 1016.0
20260904090037 67 0 0.0 1.0 0.00 0.23 0.00 96 1015.8
20260904084541 67 144 0.0 1.0 0.00 0.23 0.00 96 1015.5
20260904083045 67 0 0.0 0.0 0.00 0.23 0.00 95 1015.4
20260904081541 67 0 0.0 0.0 0.00 0.23 0.00 95 1015.4
20260904080045 67 0 0.0 0.0 0.00 0.23 0.00 95 1015.6
20260904074546 67 0 0.0 0.0 0.00 0.23 0.00 95 1015.6
20260904073043 67 0 0.0 0.0 0.00 0.23 0.00 95 1015.7
20260904071552 67 0 0.0 0.0 0.00 0.23 0.00 95 1016.0
20260904070046 67 0 0.0 0.0 0.00 0.23 0.00 95 1016.0
20260904064542 67 0 0.0 0.0 0.00 0.23 0.00 95 1016.1
20260904063041 68 23 0.0 1.0 0.00 0.23 0.00 95 1015.9
20260904061541 68 24 0.0 1.0 0.00 0.23 0.00 95 1016.0
20260904060050 68 0 0.0 0.0 0.00 0.23 0.00 95 1016.1
20260904054544 68 0 0.0 0.0 0.00 0.23 0.00 95 1016.2
20260904053044 68 0 0.0 1.0 0.00 0.23 0.00 95 1016.1
20260904051542 68 0 0.0 1.0 0.00 0.23 0.00 95 1016.3
20260904050046 68 190 0.0 1.0 0.00 0.23 0.00 95 1016.4
20260904044542 68 0 0.0 4.0 0.00 0.23 0.00 95 1016.0
20260904043038 68 179 0.0 3.0 0.00 0.23 0.00 95 1016.0
20260904041545 69 0 0.0 4.0 0.00 0.23 0.00 95 1015.9
20260904040040 69 0 0.0 6.0 0.00 0.23 0.00 95 1015.9
20260904034538 69 0 0.0 6.0 0.00 0.23 0.23 95 1015.7
20260904033039 69 198 2.0 7.0 0.00 0.23 0.23 95 1015.5